Weather Roundup
Issued by NWS

Home | Current Version | Previous Version | Graphics & Text | Print | Product List | Glossary Off
Versions: 1 2 3 4 5 6 7 8 9 10 11 12 13 14 15 16 17 18 19 20 21 22 23 24 25 26 27 28 29 30 31 32 33 34 35 36 37 38 39 40 41 42 43 44 45 46 47 48 49 50

000
NZUS93 KARX 020310
HRRWXR

CURRENT HOURLY OBSERVATIONS ACROSS
MUCH OF THE UPPER MISSISSIPPI VALLEY
NATIONAL WEATHER SERVICE LA CROSSE WI
1000 PM CDT SAT AUG 01 2015


...SOUTHEAST MINNESOTA...


CITY           SKY/WX    TMP DP  RH WIND       PRES   REMARKS
ROCHESTER      CLEAR     70  66  87 S10       29.86S
ROCHESTER/MAYO FAIR      76  66  71 S9        29.85S
WINONA         CLEAR     77  64  65 SW3       29.82S
AUSTIN         CLEAR     72  64  78 S6        29.86S
ALBERT LEA     CLEAR     75  66  73 S3        29.86R
DODGE CENTER   CLEAR     73  64  73 SW10      29.85S
PRESTON        CLEAR     73  67  80 SW8       29.88R
OWATONNA       CLEAR     73  64  73 S10       29.84R
FARIBAULT      CLEAR     73  66  78 S8        29.82F
$$

...ELSEWHERE IN MINNESOTA...


CITY           SKY/WX    TMP DP  RH WIND       PRES   REMARKS
MINNEAPOLIS    PTCLDY    80  67  64 S8        29.78S
INTNL FALLS    PTCLDY    59  56  89 CALM      29.69F
DULUTH         PTCLDY    69  57  65 SW9       29.76S
RED WING       CLEAR     79  66  65 SW6       29.79S
REDWOOD FALLS  CLEAR     75  66  73 S10       29.78S
MANKATO        CLEAR     73  64  73 S10       29.81S
WORTHINGTON    CLEAR     72  63  73 S10       29.87R
FAIRMONT       PTCLDY    72  63  73 S8        29.85R
$$

...SOUTHWEST WISCONSIN...


CITY           SKY/WX    TMP DP  RH WIND       PRES   REMARKS
LA CROSSE      CLEAR     77  67  71 S7        29.82S
PRAIRIE DU CHI CLEAR     74  67  77 CALM      29.87R
BOSCOBEL       CLEAR     70  67  90 CALM      29.87R
LONE ROCK      CLEAR     67  63  87 CALM      29.87S
PLATTEVILLE    CLEAR     72  69  91 S7        29.90S
FORT MC COY    CLEAR     68  61  77 CALM      29.85S
CAMP DOUGLAS   CLEAR     67  67 100 SE3       29.84
VIROQUA        FAIR      73  64  75 S7        29.88S
WIS DELLS      CLEAR     69  60  74 CALM      29.86F
$$

...ELSEWHERE IN WISCONSIN...


CITY           SKY/WX    TMP DP  RH WIND       PRES   REMARKS
MILWAUKEE      CLEAR     72  59  63 S5        29.87F
MADISON        PTCLDY    71  62  73 S3        29.87S
GREEN BAY      CLEAR     64  58  80 SW6       29.83S
EAU CLAIRE     CLEAR     69  62  78 CALM      29.81R
BLACK RVR FLS  FAIR      64  64  97 CALM      29.82S
MEDFORD        CLEAR     60  58  91 S3        29.84S
WAUSAU         CLEAR     70  59  68 S3        29.82F
WIS RAPIDS     CLEAR     66  57  72 CALM      29.86R
MARSHFIELD     CLEAR     67  59  75 CALM      29.85R
RICE LAKE      FAIR      66  61  84 S3        29.83S
$$

...NORTHEAST IOWA...


CITY           SKY/WX    TMP DP  RH WIND       PRES   REMARKS
DECORAH        CLEAR     73  68  83 S7        29.87S
MASON CITY     CLEAR     69  66  90 S5        29.89R
CHARLES CITY   CLEAR     72  72 100 S7        29.89R
OELWEIN          N/A     73  72  94 S8        29.90S
$$

...ELSEWHERE IN IOWA...


CITY           SKY/WX    TMP DP  RH WIND       PRES   REMARKS
DES MOINES     PTCLDY    79  71  76 S6        29.90R
IOWA CITY      CLEAR     74  71  91 S3        29.92S
FORT DODGE     CLEAR     73  66  78 S6        29.90R
$$

...NORTHERN ILLINOIS...


CITY           SKY/WX    TMP DP  RH WIND       PRES   REMARKS
CHICAGO-OHARE  PTCLDY    77  63  61 SW8       29.90S
CHICAGO-MIDWAY MOCLDY    79  62  56 SW8       29.91R
MOLINE         PTCLDY    74  67  78 S7        29.91S
ROCKFORD       CLEAR     72  65  78 S5        29.92R
PEORIA         PTCLDY    76  64  66 S5        29.95R
$$

NOTE: "FAIR" INDICATES FEW OR NO CLOUDS BELOW 12,000 FEET WITH NO
SIGNIFICANT WEATHER AND/OR OBSTRUCTIONS TO VISIBILITY. WIND
SPEEDS ARE IN MILES-PER-HOUR.



USA.gov is the U.S. government's official web portal to all federal, state and local government web resources and services.